Location: Mound City (historical)
(34.0564°N, 117.2656°W)
Time: 02:04:51
(UTC+00:00)

Cosmos 2322 Rocket - Pass Details

Date: 08 September 2024
Orbit: 831 x 850 km, 71.0° (Epoch: 03 October)

Event Time Altitude Azimuth Distance (km) Brightness Sun altitude
Rises 12:37:03 0° 333° (NNW) 3,411 5.2 -11.2°
Reaches altitude 10° 12:39:34 10° 329° (NNW) 2,470 4.5 -10.7°
Maximum altitude 12:45:02 52° 254° (WSW) 1,038 2.3 -9.6°
Drops below altitude 10° 12:50:28 10° 179° (S) 2,443 4.5 -8.5°
Sets 12:52:56 0° 174° (S) 3,371 5.3 -8.0°
